Weather History for KMTC - September, 2013

Change the Weather History Date:

Sunday, September 22, 2013

  Actual Average Record
Temperature  
Mean Temperature 52 °F -  
Max Temperature 61 °F 67 °F 84 °F (1980)
Min Temperature 44 °F 48 °F 35 °F (1999)
Degree Days  
Heating Degree Days 14    
Growing Degree Days 2 (Base 50)    
Moisture  
Dew Point 43 °F    
Average Humidity 71    
Maximum Humidity 90    
Minimum Humidity 56    
Precipitation  
Precipitation 0.00 in - - ()
Sea Level Pressure  
Sea Level Pressure 29.99 in    
Wind  
Wind Speed 9 mph (NNW)    
Max Wind Speed 13 mph    
Max Gust Speed -    
Visibility 11 miles    
Events      
Averages and records for this station are not official NWS values.
T = Trace of Precipitation, MM = Missing Value Source: NWS Daily Summary

Daily Weather History Graph

Daily Weather History Graph

Search for Another Location

Airport or City:

Trip Planner

Search our weather history database for the weather conditions in past years. The results will help you decide how hot, cold, wet, or windy it might be!

Date:

Astronomy

Sep. 22, 2013 Rise Set
Actual Time 7:18 AM EDT 7:28 PM EDT
Civil Twilight 6:50 AM EDT 7:56 PM EDT
Nautical Twilight 6:17 AM EDT 8:29 PM EDT
Astronomical Twilight 5:44 AM EDT 9:02 PM EDT
Moon 9:11 PM EDT (9/22) 10:43 AM EDT (9/22)
Length of Visible Light 13h 05m
Length of Day
12h 09m
Waning Gibbous, 89% of the Moon is Illuminated
Sep 22
Waning Gibbous
Sep 26
Last Quarter
Oct 4
New
Oct 11
First Quarter
Oct 18
Full

Hourly Weather History & Observations

Time (EDT) Temp. Windchill Dew Point Humidity Pressure Visibility Wind Dir Wind Speed Gust Speed Precip Events Conditions
12:58 AM 52.9 °F - 43.9 °F 71% 29.88 in 10.0 mi NW 6.9 mph - N/A   Overcast
1:58 AM 52.7 °F - 44.2 °F 73% 29.89 in 10.0 mi NW 10.4 mph - N/A   Overcast
2:58 AM 52.5 °F - 43.5 °F 71% 29.89 in 10.0 mi NW 5.8 mph - N/A   Overcast
3:58 AM 52.2 °F - 41.9 °F 68% 29.90 in 10.0 mi NW 9.2 mph - N/A   Overcast
4:58 AM 51.1 °F - 43.5 °F 75% 29.91 in 10.0 mi NNW 8.1 mph - N/A   Overcast
5:13 AM 51.8 °F - 44.6 °F 76% 29.91 in 10.0 mi NNW 10.4 mph - N/A   Overcast
5:33 AM 50.0 °F - 42.8 °F 76% 29.91 in 10.0 mi NW 9.2 mph - N/A   Overcast
5:58 AM 49.1 °F - 42.8 °F 79% 29.94 in 10.0 mi NNW 12.7 mph - N/A   Scattered Clouds
6:58 AM 47.5 °F - 43.2 °F 85% 29.95 in 10.0 mi WNW 6.9 mph - N/A   Clear
7:55 AM 46.9 °F - 42.8 °F 86% 29.98 in 12.0 mi NW 9.2 mph - N/A   Clear
8:55 AM 49.3 °F - 41.7 °F 75% 29.99 in 12.0 mi NW 12.7 mph - N/A   Clear
9:55 AM 52.2 °F - 41.7 °F 68% 30.00 in 12.0 mi NW 12.7 mph - N/A   Partly Cloudy
10:55 AM 54.3 °F - 40.8 °F 60% 30.01 in 12.0 mi NNW 11.5 mph - N/A   Partly Cloudy
11:55 AM 57.0 °F - 42.8 °F 59% 30.02 in 12.0 mi WNW 10.4 mph - N/A   Partly Cloudy
12:55 PM 57.6 °F - 43.2 °F 59% 30.03 in 12.0 mi NNW 12.7 mph - N/A   Scattered Clouds
1:55 PM 57.9 °F - 43.0 °F 58% 30.02 in 12.0 mi NNW 10.4 mph - N/A   Mostly Cloudy
2:55 PM 58.1 °F - 42.6 °F 56% 30.01 in 12.0 mi NNW 6.9 mph - N/A   Mostly Cloudy
3:55 PM 57.2 °F - 42.4 °F 58% 30.02 in 12.0 mi NNW 10.4 mph - N/A   Mostly Cloudy
4:55 PM 57.0 °F - 42.1 °F 57% 30.03 in 12.0 mi North 11.5 mph - N/A   Mostly Cloudy
5:55 PM 54.9 °F - 43.9 °F 66% 30.04 in 12.0 mi North 9.2 mph - N/A   Mostly Cloudy
6:55 PM 53.2 °F - 43.0 °F 68% 30.05 in 12.0 mi NNE 10.4 mph - N/A   Mostly Cloudy
7:55 PM 51.8 °F - 43.3 °F 73% 30.07 in 12.0 mi North 9.2 mph - N/A   Mostly Cloudy
8:58 PM 51.8 °F - 43.9 °F 74% 30.08 in 10.0 mi North 6.9 mph - N/A   Overcast
9:58 PM 47.5 °F - 41.2 °F 79% 30.09 in 10.0 mi NNE 6.9 mph - N/A   Clear
10:58 PM 45.0 °F 41.8 °F 41.4 °F 87% 30.09 in 10.0 mi Variable 5.8 mph - N/A   Clear
11:58 PM 44.4 °F - 41.7 °F 90% 30.10 in 10.0 mi NNE 1.2 mph - N/A   Clear